NOAA 16 DEB, 41162

Orbit data source: Space-Track

NOAA 16 DEB, 41162 is space debris in SSO originally from a launch on Thu, 21 Sep 2000 UTC launched from the Air Force Western Test Range (AFWTR). Debris objects in space refer to the collection of defunct objects orbiting the Earth. Examples of debris include non-operational satellites, rocket bodies, and fragments generated from explosions, collisions, or faulty payload assembly.

Loading next visibility...
Identifier
41162, 2000-055CV
Orbit
SSO
Country
Flag of USUS
Related business
Manufacturer
Unknown
Mission
Spacecraft
Bus & Motor
Unknown
Mass
Unknown
Launch date (UTC)
2000-09-21 (25 years ago)
Launch vehicle
Unknown
Launch site
Air Force Western Test Range (AFWTR)
Object type
Payload
Rocket body
Debris
Shape & HBR
Unknown shape, 0.1 m
Radar Cross Section
Small (<0.1 m²)

Expand to show TLE details & history
Last TLE update: 11 hours ago

TLE from 11 hours ago
0 NOAA 16 DEB
1 41162U 00055CV  25290.95788774  .00007140  00000-0  30306-2 0  9993
2 41162  98.7300 351.1572 0031628 176.0176 184.1261 14.25342008509146
Epoch: 2025-10-17T22:59Z
TLE epoch observation values (Epoch: 2025-10-17T22:59:21.500Z)
Latitude
-0.00003°
Longitude
-20.37818°
Altitude
832.936 km
Speed
7.425 km/s
True Right ascension
23h 24m 37s
True Declination
0° 00' 00"
Sunlit
Object was in full shadow at epoch
Visualization orbit readout
Latitude
Unknown
Longitude
Unknown
Altitude
Unknown
Speed
Unknown
Apparent Right ascension
Unknown
Apparent Declination
Unknown
Sunlit
N/A
Visualization observer readout
Local Sidereal Time
04:29:06
Azimuth
Unknown
Elevation
Unknown
Doppler factor
Unknown
Orbital elements
Apogee altitude
827.213 km
Perigee altitude
781.778 km
Semi-major axis
7,182.632 km
Eccentricity
0.00316
Inclination
98.73°
RAAN
351.1572°
Arg. of periapsis
176.0176°
True anomaly
184.10012°
Mean anomaly
184.1261°
Eccentric anomaly
184.1131°
Mean motion
3.56548 °/min
Orbital period
100.97 mins
BSTAR
0.0030306
Loading maneuver chart data...
Computing Atmospheric mass density...
Loading historical data...
Loading historical data...
Loading historical data...
Loading historical data...
Loading historical data...
Loading historical data...
Loading historical data...

Documentation

Showing up to 5 results
|